Regional Weather Roundup
Issued by NWS Burlington, VT

Home | Current Version | Previous Version | Text Only | Print | Product List | Glossary On
Versions: 1 2 3 4 5 6 7 8 9 10 11 12 13 14 15 16 17 18 19 20 21 22 23 24 25 26 27 28 29 30 31 32 33 34 35 36 37 38 39 40 41 42 43 44 45 46 47 48 49 50
000
ASUS41 KBTV 051610
RWRBTV
VERMONT REGIONAL WEATHER ROUNDUP
NATIONAL WEATHER SERVICE BURLINGTON VT
1100 AM EST MON DEC 05 2016

NOTE: "FAIR" INDICATES FEW OR NO CLOUDS BELOW 12,000 FEET WITH NO
SIGNIFICANT WEATHER AND/OR OBSTRUCTIONS TO VISIBILITY.

* THESE REPORTS ARE NOT UNDER NWS QUALITY CONTROL AND/OR DO NOT
  REPORT WEATHER SUCH AS PRECIPITATION AND FOG.

VTZ001>019-051700-
_____VERMONT_____


CITY           SKY/WX    TMP DP  RH WIND       PRES   REMARKS
BURLINGTON     LGT SNOW  30  27  88 S7        29.87F FOG     WCI  23
MONTPELIER     LGT SNOW  26  24  92 S8        29.91F VSB 3/4 WCI  18
MORRISVILLE    LGT SNOW  26  23  88 S5        29.90F VSB 3/4 WCI  20
ST. JOHNSBURY*   N/A     24  22  91 MISG      29.90F
LYNDONVILLE*   LGT SNOW  23  22  96 S3        29.90F VSB 3/4
MIDDLEBURY*    LGT SNOW  31  31 100 CALM      29.88F
RUTLAND*       CLOUDY    31  27  85 SE15      29.88F WCI  20
SPRINGFIELD    LGT SNOW  26  23  88 CALM      29.94F FOG
HIGHGATE*      LGT SNOW  29  28  94 SE6       29.86F WCI  23
NEWPORT*       LGT SNOW  25  23  93 S9        29.87F WCI  15
BENNINGTON     CLOUDY    37  29  72 SW8G17    29.88F WCI  31
SUTTON*          N/A     23 N/A N/A MISG        N/A

_____LAKE CHAMPLAIN_____


CITY           SKY/WX    TMP DP  RH WIND       PRES   REMARKS
BURTON ISLAND*   N/A     32  32 100 SE15        N/A  WCI  22
COLCHESTER RF*   N/A     34  32  93 S26         N/A  WCI  21
DIAMOND ISL*     N/A     32  30  93 S13         N/A  WCI  22

$$

NYZ007-026>031-035-052-083-087-051700-
_____NORTHERN NEW YORK_____


CITY           SKY/WX    TMP DP  RH WIND       PRES   REMARKS
PLATTSBURGH    LGT SNOW  32  27  81 S9        29.86F WCI  24
SARANAC LAKE   LGT SNOW  29  25  85 SW9       29.75F FOG     WCI  20
MASSENA        LGT SNOW  30  27  88 E5        29.84F FOG     WCI  25
OGDENSBURG*    LGT SNOW  34  30  86 CALM      29.82S
POTSDAM*       LGT SNOW  30  30 100 CALM      29.81F
WATERTOWN      LGT RAIN  38  35  89 W14       29.84R WCI  30
FT DRUM        FLURRIES  35  33  93 SW8       29.81R WCI  28

$$
NHZ002-005-011-051700-
_____NEW HAMPSHIRE_____


CITY           SKY/WX    TMP DP  RH WIND       PRES   REMARKS
LEBANON        LGT SNOW  28  26  92 CALM      29.93F VSB 1
KEENE          LGT SNOW  31  29  92 CALM      29.94F FOG
MT WASHINGTON  SNOW      14  14 100 SW30G40     N/A  VSB 0   WCI  -7

$$

_____REGIONAL QUEBEC LOCATIONS_____


CITY           SKY/WX    TMP DP  RH WIND       PRES   REMARKS
MONTREAL       LGT SNOW  28  25  86 NE6       29.87F VSB 1   WCI  22
QUEBEC CITY    MOSUNNY   21  18  86 E12G23    29.94F WCI   9
SHERBROOKE     LGT SNOW  21  19  93 NE5       29.88F VSB 3/4 WCI  15

_____REGIONAL ONTARIO LOCATIONS_____


CITY           SKY/WX    TMP DP  RH WIND       PRES   REMARKS
OTTAWA         LGT SNOW  27  25  93 NE9       29.84S WCI  17

______KEY______
VSB  - VISIBILITY IN MILES
WCI  - WIND CHILL INDEX
HX   - HEAT INDEX
$$
NNNN




USA.gov is the U.S. government's official web portal to all federal, state and local government web resources and services.